Time,TemperatureF,DewpointF,PressureIn,WindDirection,WindDirectionDegrees,WindSpeedMPH,WindSpeedGustMPH,Humidity,HourlyPrecipIn,Conditions,Clouds,dailyrainin,SoftwareType,DateUTC
2013-06-28 00:03:00,64.0,-38.7,29.84,South,180,0.0,4.0,1,0.00,,,0.00,Weather View 32 v70,2013-06-28 04:03:00,
2013-06-28 00:08:00,64.0,-38.7,29.84,South,180,0.0,4.0,1,0.00,,,0.00,Weather View 32 v70,2013-06-28 04:08:00,
2013-06-28 00:17:00,64.0,-38.7,29.84,ENE,67,6.0,6.0,1,0.00,,,0.00,Weather View 32 v70,2013-06-28 04:17:00,
2013-06-28 00:31:00,64.0,-38.7,29.84,SE,135,1.0,6.0,1,0.00,,,0.00,Weather View 32 v70,2013-06-28 04:31:00,
2013-06-28 00:36:00,63.0,-39.3,29.84,WNW,292,0.0,6.0,1,0.00,,,0.00,Weather View 32 v70,2013-06-28 04:36:00,
2013-06-28 00:41:00,63.0,-39.3,29.83,SSE,157,0.0,6.0,1,0.00,,,0.00,Weather View 32 v70,2013-06-28 04:41:00,
2013-06-28 00:46:00,63.0,-39.3,29.83,North,360,0.0,6.0,1,0.00,,,0.00,Weather View 32 v70,2013-06-28 04:46:00,
2013-06-28 00:51:00,63.0,-39.3,29.83,SSW,202,0.0,6.0,1,0.00,,,0.00,Weather View 32 v70,2013-06-28 04:51:00,
2013-06-28 00:56:00,63.0,-39.3,29.83,North,360,3.0,6.0,1,0.00,,,0.00,Weather View 32 v70,2013-06-28 04:56:00,
2013-06-28 01:01:00,63.0,-39.3,29.82,NNE,22,1.0,6.0,1,0.00,,,0.00,Weather View 32 v70,2013-06-28 05:01:00,
2013-06-28 01:06:00,63.0,-39.3,29.82,NNW,337,0.0,6.0,1,0.00,,,0.00,Weather View 32 v70,2013-06-28 05:06:00,
2013-06-28 01:11:00,63.0,-39.3,29.82,NE,45,6.0,6.0,1,0.00,,,0.00,Weather View 32 v70,2013-06-28 05:11:00,
2013-06-28 01:16:00,63.0,-39.3,29.81,NE,45,5.0,6.0,1,0.00,,,0.00,Weather View 32 v70,2013-06-28 05:16:00,
2013-06-28 01:21:00,63.0,-39.3,29.81,ESE,112,1.0,6.0,1,0.00,,,0.00,Weather View 32 v70,2013-06-28 05:21:00,
2013-06-28 01:26:00,63.0,-39.3,29.81,NW,315,1.0,6.0,1,0.00,,,0.00,Weather View 32 v70,2013-06-28 05:26:00,
2013-06-28 01:32:00,63.0,-39.3,29.81,SSE,157,0.0,6.0,1,0.00,,,0.00,Weather View 32 v70,2013-06-28 05:32:00,
2013-06-28 01:37:00,63.0,-39.3,29.81,ENE,67,4.0,6.0,1,0.00,,,0.00,Weather View 32 v70,2013-06-28 05:37:00,
2013-06-28 01:42:00,63.0,-39.3,29.80,SE,135,1.0,6.0,1,0.00,,,0.00,Weather View 32 v70,2013-06-28 05:42:00,
2013-06-28 01:47:00,62.0,-39.9,29.79,ENE,67,3.0,6.0,1,0.00,,,0.00,Weather View 32 v70,2013-06-28 05:47:00,
2013-06-28 01:52:00,62.0,-39.9,29.78,ENE,67,0.0,6.0,1,0.00,,,0.00,Weather View 32 v70,2013-06-28 05:52:00,
2013-06-28 02:36:00,60.0,-41.1,29.76,South,180,3.0,6.0,1,0.00,,,0.00,Weather View 32 v70,2013-06-28 06:36:00,
2013-06-28 03:24:00,59.0,-41.7,29.72,ENE,67,5.0,5.0,1,0.00,,,0.00,Weather View 32 v70,2013-06-28 07:24:00,
2013-06-28 03:29:00,59.0,-41.7,29.72,NNE,22,0.0,5.0,1,0.00,,,0.00,Weather View 32 v70,2013-06-28 07:29:00,
2013-06-28 03:34:00,59.0,-41.7,29.72,ENE,67,0.0,5.0,1,0.00,,,0.00,Weather View 32 v70,2013-06-28 07:34:00,
2013-06-28 03:39:00,59.0,-41.7,29.72,SSE,157,0.0,5.0,1,0.00,,,0.00,Weather View 32 v70,2013-06-28 07:39:00,
2013-06-28 03:44:00,59.0,-41.7,29.72,ENE,67,2.0,5.0,1,0.00,,,0.00,Weather View 32 v70,2013-06-28 07:44:00,
2013-06-28 03:49:00,59.0,-41.7,29.72,ENE,67,0.0,5.0,1,0.00,,,0.00,Weather View 32 v70,2013-06-28 07:49:00,
2013-06-28 03:54:00,59.0,-41.7,29.72,SSW,202,3.0,5.0,1,0.00,,,0.00,Weather View 32 v70,2013-06-28 07:54:00,
2013-06-28 03:59:00,59.0,-41.7,29.72,NE,45,1.0,5.0,1,0.00,,,0.00,Weather View 32 v70,2013-06-28 07:59:00,
2013-06-28 04:04:00,59.0,-41.7,29.72,WSW,247,0.0,5.0,1,0.00,,,0.00,Weather View 32 v70,2013-06-28 08:04:00,
2013-06-28 04:09:00,59.0,-41.7,29.72,NNE,22,0.0,5.0,1,0.00,,,0.00,Weather View 32 v70,2013-06-28 08:09:00,
2013-06-28 04:18:00,60.0,-41.1,29.71,West,270,1.0,5.0,1,0.00,,,0.00,Weather View 32 v70,2013-06-28 08:18:00,
2013-06-28 04:23:00,60.0,-41.1,29.71,SSW,202,0.0,5.0,1,0.00,,,0.00,Weather View 32 v70,2013-06-28 08:23:00,
2013-06-28 04:28:00,60.0,-41.1,29.72,West,270,0.0,4.0,1,0.00,,,0.00,Weather View 32 v70,2013-06-28 08:28:00,
2013-06-28 04:46:00,60.0,-41.1,29.71,North,360,0.0,4.0,1,0.00,,,0.00,Weather View 32 v70,2013-06-28 08:46:00,
2013-06-28 06:08:00,61.0,-40.5,29.69,North,360,9.0,0.0,1,0.00,,,0.00,Weather View 32 v70,2013-06-28 10:08:00,
2013-06-28 06:37:00,61.0,-40.5,29.68,WNW,292,0.0,9.0,1,0.00,,,0.00,Weather View 32 v70,2013-06-28 10:37:00,
2013-06-28 06:42:00,61.0,-40.5,29.67,North,360,0.0,9.0,1,0.00,,,0.00,Weather View 32 v70,2013-06-28 10:42:00,
2013-06-28 06:47:00,61.0,-40.5,29.67,North,360,0.0,9.0,1,0.00,,,0.00,Weather View 32 v70,2013-06-28 10:47:00,
2013-06-28 06:52:00,61.0,-40.5,29.67,North,360,0.0,9.0,1,0.00,,,0.00,Weather View 32 v70,2013-06-28 10:52:00,
2013-06-28 06:53:00,61.0,-40.5,29.67,North,360,0.0,9.0,1,0.00,,,0.00,Weather View 32 v70,2013-06-28 10:53:00,
2013-06-28 06:58:00,61.0,-40.5,29.67,North,360,0.0,9.0,1,0.00,,,0.00,Weather View 32 v70,2013-06-28 10:58:00,
2013-06-28 07:03:00,61.0,-40.5,29.67,North,360,0.0,9.0,1,0.00,,,0.00,Weather View 32 v70,2013-06-28 11:03:00,
2013-06-28 07:08:00,61.0,-40.5,29.67,North,360,0.0,9.0,1,0.00,,,0.00,Weather View 32 v70,2013-06-28 11:08:00,
2013-06-28 07:13:00,61.0,-40.5,29.67,North,360,0.0,3.0,1,0.00,,,0.00,Weather View 32 v70,2013-06-28 11:13:00,
2013-06-28 07:18:00,61.0,-40.5,29.67,North,360,0.0,3.0,1,0.00,,,0.00,Weather View 32 v70,2013-06-28 11:18:00,
2013-06-28 07:23:00,62.0,-39.9,29.66,North,360,0.0,3.0,1,0.00,,,0.00,Weather View 32 v70,2013-06-28 11:23:00,
2013-06-28 07:28:00,62.0,-39.9,29.66,NNE,22,0.0,3.0,1,0.00,,,0.00,Weather View 32 v70,2013-06-28 11:28:00,
2013-06-28 07:33:00,62.0,-39.9,29.66,East,90,0.0,3.0,1,0.00,,,0.00,Weather View 32 v70,2013-06-28 11:33:00,
2013-06-28 07:38:00,62.0,-39.9,29.66,ESE,112,0.0,3.0,1,0.00,,,0.00,Weather View 32 v70,2013-06-28 11:38:00,
2013-06-28 07:43:00,62.0,-39.9,29.66,ESE,112,0.0,3.0,1,0.00,,,0.00,Weather View 32 v70,2013-06-28 11:43:00,
2013-06-28 07:48:00,62.0,-39.9,29.66,ENE,67,0.0,3.0,1,0.00,,,0.00,Weather View 32 v70,2013-06-28 11:48:00,
2013-06-28 07:53:00,62.0,-39.9,29.66,NE,45,0.0,4.0,1,0.00,,,0.00,Weather View 32 v70,2013-06-28 11:53:00,
2013-06-28 07:58:00,62.0,-39.9,29.66,NNW,337,0.0,4.0,1,0.00,,,0.00,Weather View 32 v70,2013-06-28 11:58:00,
2013-06-28 08:03:00,63.0,-39.3,29.65,SE,135,0.0,4.0,1,0.00,,,0.00,Weather View 32 v70,2013-06-28 12:03:00,
2013-06-28 08:08:00,63.0,-39.3,29.65,SE,135,0.0,4.0,1,0.00,,,0.00,Weather View 32 v70,2013-06-28 12:08:00,
2013-06-28 08:13:00,63.0,-39.3,29.65,SE,135,0.0,4.0,1,0.00,,,0.00,Weather View 32 v70,2013-06-28 12:13:00,
2013-06-28 08:18:00,64.0,-38.7,29.65,NNE,22,2.0,4.0,1,0.00,,,0.00,Weather View 32 v70,2013-06-28 12:18:00,
2013-06-28 08:23:00,64.0,-38.7,29.66,NNE,22,2.0,4.0,1,0.00,,,0.00,Weather View 32 v70,2013-06-28 12:23:00,
2013-06-28 08:28:00,64.0,-38.7,29.66,NNE,22,0.0,4.0,1,0.00,,,0.00,Weather View 32 v70,2013-06-28 12:28:00,
2013-06-28 08:33:00,64.0,-38.7,29.65,NNE,22,0.0,4.0,1,0.00,,,0.00,Weather View 32 v70,2013-06-28 12:33:00,
2013-06-28 08:38:00,64.0,-38.7,29.65,NNE,22,0.0,4.0,1,0.00,,,0.00,Weather View 32 v70,2013-06-28 12:38:00,
2013-06-28 08:44:00,65.0,-38.1,29.65,NNE,22,0.0,4.0,1,0.00,,,0.00,Weather View 32 v70,2013-06-28 12:44:00,
2013-06-28 08:49:00,65.0,-38.1,29.65,NNE,22,0.0,4.0,1,0.00,,,0.00,Weather View 32 v70,2013-06-28 12:49:00,
2013-06-28 08:54:00,65.0,-38.1,29.65,NNE,22,0.0,4.0,1,0.00,,,0.00,Weather View 32 v70,2013-06-28 12:54:00,
2013-06-28 08:59:00,65.0,-38.1,29.64,NNE,22,0.0,4.0,1,0.00,,,0.00,Weather View 32 v70,2013-06-28 12:59:00,
2013-06-28 09:04:00,65.0,-38.1,29.64,NNE,22,0.0,4.0,1,0.00,,,0.00,Weather View 32 v70,2013-06-28 13:04:00,
2013-06-28 09:09:00,65.0,-38.1,29.64,NNE,22,0.0,4.0,1,0.00,,,0.00,Weather View 32 v70,2013-06-28 13:09:00,
2013-06-28 09:14:00,66.0,-37.5,29.64,NE,45,0.0,4.0,1,0.00,,,0.00,Weather View 32 v70,2013-06-28 13:14:00,
2013-06-28 09:19:00,66.0,-37.5,29.64,NE,45,0.0,2.0,1,0.00,,,0.00,Weather View 32 v70,2013-06-28 13:19:00,
2013-06-28 09:24:00,66.0,-37.5,29.64,NE,45,0.0,2.0,1,0.00,,,0.00,Weather View 32 v70,2013-06-28 13:24:00,
2013-06-28 09:29:00,67.0,-36.9,29.64,WNW,292,0.0,3.0,1,0.00,,,0.00,Weather View 32 v70,2013-06-28 13:29:00,
2013-06-28 09:34:00,67.0,-36.9,29.64,WNW,292,0.0,3.0,1,0.00,,,0.00,Weather View 32 v70,2013-06-28 13:34:00,
2013-06-28 09:39:00,67.0,-36.9,29.64,WSW,247,0.0,3.0,1,0.00,,,0.00,Weather View 32 v70,2013-06-28 13:39:00,
2013-06-28 09:44:00,68.0,-36.3,29.64,SSE,157,2.0,3.0,1,0.00,,,0.00,Weather View 32 v70,2013-06-28 13:44:00,
2013-06-28 09:49:00,69.0,-35.7,29.64,SSE,157,0.0,3.0,1,0.00,,,0.00,Weather View 32 v70,2013-06-28 13:49:00,
2013-06-28 09:54:00,69.0,-35.7,29.64,WNW,292,0.0,3.0,1,0.00,,,0.00,Weather View 32 v70,2013-06-28 13:54:00,
2013-06-28 09:59:00,69.0,-35.7,29.64,SW,225,0.0,3.0,1,0.00,,,0.00,Weather View 32 v70,2013-06-28 13:59:00,
2013-06-28 10:04:00,70.0,-35.1,29.64,South,180,0.0,3.0,1,0.00,,,0.00,Weather View 32 v70,2013-06-28 14:04:00,
2013-06-28 10:09:00,70.0,-35.1,29.63,SE,135,1.0,6.0,1,0.00,,,0.00,Weather View 32 v70,2013-06-28 14:09:00,
2013-06-28 10:14:00,70.0,-35.1,29.64,SSE,157,4.0,6.0,1,0.00,,,0.00,Weather View 32 v70,2013-06-28 14:14:00,
2013-06-28 10:19:00,71.0,-34.5,29.64,West,270,5.0,6.0,1,0.00,,,0.00,Weather View 32 v70,2013-06-28 14:19:00,
2013-06-28 10:24:00,71.0,-34.5,29.64,SW,225,2.0,7.0,1,0.00,,,0.00,Weather View 32 v70,2013-06-28 14:24:00,
2013-06-28 10:29:00,71.0,-34.5,29.64,SE,135,0.0,7.0,1,0.00,,,0.00,Weather View 32 v70,2013-06-28 14:29:00,
2013-06-28 10:34:00,71.0,-34.5,29.64,SSE,157,1.0,7.0,1,0.00,,,0.00,Weather View 32 v70,2013-06-28 14:34:00,
2013-06-28 10:39:00,71.0,-34.5,29.64,SE,135,2.0,7.0,1,0.00,,,0.00,Weather View 32 v70,2013-06-28 14:39:00,
2013-06-28 10:44:00,72.0,-33.9,29.64,WSW,247,2.0,7.0,1,0.00,,,0.00,Weather View 32 v70,2013-06-28 14:44:00,
2013-06-28 10:49:00,72.0,-33.9,29.64,SW,225,3.0,7.0,1,0.00,,,0.00,Weather View 32 v70,2013-06-28 14:49:00,
2013-06-28 10:54:00,73.0,-33.3,29.64,SE,135,3.0,7.0,1,0.00,,,0.00,Weather View 32 v70,2013-06-28 14:54:00,
2013-06-28 10:59:00,73.0,-33.3,29.64,WSW,247,0.0,7.0,1,0.00,,,0.00,Weather View 32 v70,2013-06-28 14:59:00,
2013-06-28 11:04:00,74.0,-32.7,29.64,ESE,112,1.0,8.0,1,0.00,,,0.00,Weather View 32 v70,2013-06-28 15:04:00,
2013-06-28 11:09:00,75.0,-32.1,29.64,WSW,247,3.0,8.0,1,0.00,,,0.00,Weather View 32 v70,2013-06-28 15:09:00,
2013-06-28 11:14:00,75.0,-32.1,29.64,SSW,202,0.0,8.0,1,0.00,,,0.00,Weather View 32 v70,2013-06-28 15:14:00,
2013-06-28 11:19:00,75.0,-32.1,29.64,SSW,202,1.0,8.0,1,0.00,,,0.00,Weather View 32 v70,2013-06-28 15:19:00,
2013-06-28 11:36:00,75.0,-32.1,29.64,SW,225,7.0,8.0,1,0.00,,,0.00,Weather View 32 v70,2013-06-28 15:36:00,
2013-06-28 11:41:00,75.0,-32.1,29.64,South,180,1.0,8.0,1,0.00,,,0.00,Weather View 32 v70,2013-06-28 15:41:00,
2013-06-28 11:46:00,75.0,-32.1,29.64,South,180,0.0,8.0,1,0.00,,,0.00,Weather View 32 v70,2013-06-28 15:46:00,
2013-06-28 11:51:00,76.0,-31.5,29.64,SE,135,3.0,8.0,1,0.00,,,0.00,Weather View 32 v70,2013-06-28 15:51:00,
2013-06-28 11:56:00,77.0,-30.9,29.64,South,180,3.0,8.0,1,0.00,,,0.00,Weather View 32 v70,2013-06-28 15:56:00,
2013-06-28 12:01:00,78.0,-30.3,29.64,SE,135,5.0,8.0,1,0.00,,,0.00,Weather View 32 v70,2013-06-28 16:01:00,
2013-06-28 12:06:00,78.0,-30.3,29.64,SE,135,5.0,8.0,1,0.00,,,0.00,Weather View 32 v70,2013-06-28 16:06:00,
2013-06-28 12:11:00,78.0,-30.3,29.64,South,180,0.0,8.0,1,0.00,,,0.00,Weather View 32 v70,2013-06-28 16:11:00,
2013-06-28 12:16:00,79.0,-29.7,29.64,South,180,2.0,8.0,1,0.00,,,0.00,Weather View 32 v70,2013-06-28 16:16:00,
2013-06-28 12:21:00,79.0,-29.7,29.64,South,180,3.0,8.0,1,0.00,,,0.00,Weather View 32 v70,2013-06-28 16:21:00,
2013-06-28 12:26:00,79.0,-29.7,29.64,South,180,4.0,8.0,1,0.00,,,0.00,Weather View 32 v70,2013-06-28 16:26:00,
2013-06-28 12:31:00,79.0,-29.7,29.64,ESE,112,5.0,9.0,1,0.00,,,0.00,Weather View 32 v70,2013-06-28 16:31:00,
2013-06-28 12:36:00,79.0,-29.7,29.64,South,180,1.0,9.0,1,0.00,,,0.00,Weather View 32 v70,2013-06-28 16:36:00,
2013-06-28 12:41:00,79.0,-29.7,29.64,SE,135,0.0,9.0,1,0.00,,,0.00,Weather View 32 v70,2013-06-28 16:41:00,
2013-06-28 12:46:00,80.0,-29.1,29.64,SE,135,5.0,9.0,1,0.00,,,0.00,Weather View 32 v70,2013-06-28 16:46:00,
2013-06-28 12:51:00,80.0,-29.1,29.63,WNW,292,1.0,9.0,1,0.00,,,0.00,Weather View 32 v70,2013-06-28 16:51:00,
2013-06-28 12:56:00,81.0,-28.5,29.63,SSW,202,0.0,9.0,1,0.00,,,0.00,Weather View 32 v70,2013-06-28 16:56:00,
2013-06-28 13:01:00,81.0,-28.5,29.63,NNE,22,2.0,9.0,1,0.00,,,0.00,Weather View 32 v70,2013-06-28 17:01:00,
2013-06-28 13:06:00,81.0,-28.5,29.63,SSW,202,6.0,9.0,1,0.00,,,0.00,Weather View 32 v70,2013-06-28 17:06:00,
2013-06-28 13:11:00,81.0,-28.5,29.63,South,180,4.0,12.0,1,0.00,,,0.00,Weather View 32 v70,2013-06-28 17:11:00,
2013-06-28 13:16:00,81.0,-28.5,29.63,SSW,202,6.0,12.0,1,0.00,,,0.00,Weather View 32 v70,2013-06-28 17:16:00,
2013-06-28 13:21:00,82.0,-27.9,29.63,SW,225,1.0,12.0,1,0.00,,,0.00,Weather View 32 v70,2013-06-28 17:21:00,
2013-06-28 13:26:00,82.0,-27.9,29.63,SW,225,3.0,12.0,1,0.00,,,0.00,Weather View 32 v70,2013-06-28 17:26:00,
2013-06-28 13:31:00,82.0,-27.9,29.63,SSE,157,2.0,12.0,1,0.00,,,0.00,Weather View 32 v70,2013-06-28 17:31:00,
2013-06-28 13:36:00,82.0,-27.9,29.63,SW,225,6.0,12.0,1,0.00,,,0.00,Weather View 32 v70,2013-06-28 17:36:00,
2013-06-28 13:41:00,82.0,-27.9,29.63,WNW,292,0.0,12.0,1,0.00,,,0.00,Weather View 32 v70,2013-06-28 17:41:00,
2013-06-28 13:46:00,83.0,-27.3,29.64,SW,225,2.0,12.0,1,0.00,,,0.00,Weather View 32 v70,2013-06-28 17:46:00,
2013-06-28 13:51:00,83.0,-27.3,29.64,SSW,202,5.0,12.0,1,0.00,,,0.00,Weather View 32 v70,2013-06-28 17:51:00,
2013-06-28 13:56:00,83.0,-27.3,29.64,SW,225,1.0,12.0,1,0.00,,,0.00,Weather View 32 v70,2013-06-28 17:56:00,
2013-06-28 14:01:00,83.0,-27.3,29.64,SSW,202,1.0,12.0,1,0.00,,,0.00,Weather View 32 v70,2013-06-28 18:01:00,
2013-06-28 14:06:00,83.0,0.2,29.63,ESE,112,3.0,12.0,4,0.00,,,0.00,Weather View 32 v70,2013-06-28 18:06:00,
2013-06-28 14:11:00,83.0,9.0,29.63,SE,135,3.0,9.0,6,0.00,,,0.00,Weather View 32 v70,2013-06-28 18:11:00,
2013-06-28 14:16:00,83.0,27.0,29.64,WSW,247,5.0,9.0,13,0.00,,,0.00,Weather View 32 v70,2013-06-28 18:16:00,
2013-06-28 14:21:00,83.0,9.0,29.63,SSE,157,3.0,9.0,6,0.00,,,0.00,Weather View 32 v70,2013-06-28 18:21:00,
2013-06-28 14:26:00,83.0,18.2,29.63,ESE,112,4.0,9.0,9,0.00,,,0.00,Weather View 32 v70,2013-06-28 18:26:00,
2013-06-28 14:32:00,83.0,15.5,29.62,SSW,202,4.0,9.0,8,0.00,,,0.00,Weather View 32 v70,2013-06-28 18:32:00,
2013-06-28 14:37:00,82.0,8.3,29.62,SE,135,3.0,9.0,6,0.00,,,0.00,Weather View 32 v70,2013-06-28 18:37:00,
2013-06-28 14:42:00,83.0,-27.3,29.62,WNW,292,2.0,9.0,1,0.00,,,0.00,Weather View 32 v70,2013-06-28 18:42:00,
2013-06-28 14:47:00,83.0,-27.3,29.62,SSE,157,1.0,10.0,1,0.00,,,0.00,Weather View 32 v70,2013-06-28 18:47:00,
2013-06-28 14:52:00,83.0,-5.9,29.62,SE,135,0.0,10.0,3,0.00,,,0.00,Weather View 32 v70,2013-06-28 18:52:00,
2013-06-28 14:57:00,83.0,36.4,29.62,SSE,157,1.0,10.0,19,0.00,,,0.00,Weather View 32 v70,2013-06-28 18:57:00,
2013-06-28 15:02:00,84.0,25.8,29.62,WSW,247,5.0,10.0,12,0.00,,,0.00,Weather View 32 v70,2013-06-28 19:02:00,
2013-06-28 15:07:00,83.0,35.0,29.62,SE,135,1.0,10.0,18,0.00,,,0.00,Weather View 32 v70,2013-06-28 19:07:00,
2013-06-28 15:12:00,83.0,25.0,29.62,SE,135,4.0,10.0,12,0.00,,,0.00,Weather View 32 v70,2013-06-28 19:12:00,
2013-06-28 15:17:00,83.0,25.0,29.62,North,360,1.0,10.0,12,0.00,,,0.00,Weather View 32 v70,2013-06-28 19:17:00,
2013-06-28 15:22:00,82.0,26.2,29.62,South,180,4.0,10.0,13,0.00,,,0.00,Weather View 32 v70,2013-06-28 19:22:00,
2013-06-28 15:27:00,82.0,11.7,29.62,SSW,202,4.0,10.0,7,0.00,,,0.00,Weather View 32 v70,2013-06-28 19:27:00,
2013-06-28 15:32:00,81.0,-7.2,29.62,West,270,4.0,10.0,3,0.00,,,0.00,Weather View 32 v70,2013-06-28 19:32:00,
2013-06-28 15:37:00,82.0,14.8,29.62,West,270,3.0,10.0,8,0.00,,,0.00,Weather View 32 v70,2013-06-28 19:37:00,
2013-06-28 15:42:00,82.0,19.9,29.62,East,90,2.0,10.0,10,0.00,,,0.00,Weather View 32 v70,2013-06-28 19:42:00,
2013-06-28 15:47:00,82.0,22.2,29.62,ENE,67,1.0,10.0,11,0.00,,,0.00,Weather View 32 v70,2013-06-28 19:47:00,
2013-06-28 15:52:00,81.0,28.9,29.62,ESE,112,2.0,10.0,15,0.00,,,0.00,Weather View 32 v70,2013-06-28 19:52:00,
2013-06-28 15:57:00,81.0,19.2,29.62,ENE,67,2.0,9.0,10,0.00,,,0.00,Weather View 32 v70,2013-06-28 19:57:00,
2013-06-28 16:02:00,81.0,21.4,29.62,East,90,2.0,9.0,11,0.00,,,0.00,Weather View 32 v70,2013-06-28 20:02:00,
2013-06-28 16:07:00,81.0,28.9,29.62,SE,135,6.0,8.0,15,0.00,,,0.00,Weather View 32 v70,2013-06-28 20:07:00,
2013-06-28 16:12:00,81.0,25.4,29.62,SE,135,0.0,8.0,13,0.00,,,0.00,Weather View 32 v70,2013-06-28 20:12:00,
2013-06-28 16:17:00,81.0,21.4,29.62,SE,135,2.0,8.0,11,0.00,,,0.00,Weather View 32 v70,2013-06-28 20:17:00,
2013-06-28 16:22:00,81.0,11.0,29.62,ENE,67,1.0,8.0,7,0.00,,,0.00,Weather View 32 v70,2013-06-28 20:22:00,
2013-06-28 16:27:00,81.0,7.6,29.62,SSE,157,2.0,7.0,6,0.00,,,0.00,Weather View 32 v70,2013-06-28 20:27:00,
2013-06-28 16:32:00,81.0,-28.5,29.62,South,180,4.0,7.0,1,0.00,,,0.00,Weather View 32 v70,2013-06-28 20:32:00,
2013-06-28 16:37:00,81.0,-7.2,29.62,West,270,1.0,8.0,3,0.00,,,0.00,Weather View 32 v70,2013-06-28 20:37:00,
2013-06-28 16:42:00,81.0,16.7,29.62,WSW,247,0.0,8.0,9,0.00,,,0.00,Weather View 32 v70,2013-06-28 20:42:00,
2013-06-28 16:47:00,81.0,19.2,29.62,SE,135,0.0,8.0,10,0.00,,,0.00,Weather View 32 v70,2013-06-28 20:47:00,
2013-06-28 16:52:00,81.0,19.2,29.62,SSE,157,0.0,8.0,10,0.00,,,0.00,Weather View 32 v70,2013-06-28 20:52:00,
2013-06-28 16:57:00,81.0,23.5,29.62,East,90,2.0,8.0,12,0.00,,,0.00,Weather View 32 v70,2013-06-28 20:57:00,
2013-06-28 17:02:00,81.0,11.0,29.62,SSE,157,1.0,8.0,7,0.00,,,0.00,Weather View 32 v70,2013-06-28 21:02:00,
2013-06-28 17:07:00,81.0,11.0,29.62,East,90,0.0,8.0,7,0.00,,,0.00,Weather View 32 v70,2013-06-28 21:07:00,
2013-06-28 17:12:00,81.0,23.5,29.62,West,270,2.0,8.0,12,0.00,,,0.00,Weather View 32 v70,2013-06-28 21:12:00,
2013-06-28 17:17:00,81.0,16.7,29.62,SW,225,4.0,8.0,9,0.00,,,0.00,Weather View 32 v70,2013-06-28 21:17:00,
2013-06-28 17:22:00,80.0,16.0,29.62,WSW,247,2.0,8.0,9,0.00,,,0.00,Weather View 32 v70,2013-06-28 21:22:00,
2013-06-28 17:27:00,80.0,-1.9,29.62,ESE,112,0.0,8.0,4,0.00,,,0.00,Weather View 32 v70,2013-06-28 21:27:00,
2013-06-28 17:32:00,80.0,-7.8,29.62,SSE,157,7.0,8.0,3,0.00,,,0.00,Weather View 32 v70,2013-06-28 21:32:00,
2013-06-28 17:37:00,79.0,-29.7,29.62,South,180,2.0,8.0,1,0.00,,,0.00,Weather View 32 v70,2013-06-28 21:37:00,
2013-06-28 17:42:00,79.0,-29.7,29.62,South,180,0.0,8.0,1,0.00,,,0.00,Weather View 32 v70,2013-06-28 21:42:00,
2013-06-28 17:47:00,79.0,-29.7,29.62,SW,225,2.0,8.0,1,0.00,,,0.00,Weather View 32 v70,2013-06-28 21:47:00,
2013-06-28 17:52:00,78.0,-30.3,29.61,South,180,1.0,9.0,1,0.00,,,0.00,Weather View 32 v70,2013-06-28 21:52:00,
2013-06-28 17:57:00,78.0,-30.3,29.61,SSE,157,1.0,11.0,1,0.00,,,0.00,Weather View 32 v70,2013-06-28 21:57:00,
2013-06-28 18:02:00,78.0,-30.3,29.61,East,90,1.0,11.0,1,0.00,,,0.00,Weather View 32 v70,2013-06-28 22:02:00,
2013-06-28 18:07:00,78.0,-30.3,29.61,NW,315,1.0,11.0,1,0.00,,,0.00,Weather View 32 v70,2013-06-28 22:07:00,
2013-06-28 18:12:00,78.0,-30.3,29.61,South,180,5.0,11.0,1,0.00,,,0.00,Weather View 32 v70,2013-06-28 22:12:00,
2013-06-28 18:17:00,78.0,-30.3,29.61,SSE,157,2.0,11.0,1,0.00,,,0.00,Weather View 32 v70,2013-06-28 22:17:00,
2013-06-28 18:22:00,78.0,-30.3,29.61,East,90,0.0,11.0,1,0.00,,,0.00,Weather View 32 v70,2013-06-28 22:22:00,
2013-06-28 18:27:00,78.0,-30.3,29.61,SSW,202,0.0,11.0,1,0.00,,,0.00,Weather View 32 v70,2013-06-28 22:27:00,
2013-06-28 18:32:00,78.0,-30.3,29.62,East,90,0.0,11.0,1,0.00,,,0.00,Weather View 32 v70,2013-06-28 22:32:00,
2013-06-28 18:37:00,78.0,-30.3,29.62,ENE,67,1.0,11.0,1,0.00,,,0.00,Weather View 32 v70,2013-06-28 22:37:00,
2013-06-28 18:42:00,78.0,-30.3,29.62,WSW,247,0.0,11.0,1,0.00,,,0.00,Weather View 32 v70,2013-06-28 22:42:00,
2013-06-28 18:47:00,78.0,-30.3,29.62,South,180,2.0,11.0,1,0.00,,,0.00,Weather View 32 v70,2013-06-28 22:47:00,
2013-06-28 18:52:00,78.0,-30.3,29.62,ESE,112,0.0,11.0,1,0.00,,,0.00,Weather View 32 v70,2013-06-28 22:52:00,
2013-06-28 18:57:00,77.0,-30.9,29.62,SSE,157,5.0,9.0,1,0.00,,,0.00,Weather View 32 v70,2013-06-28 22:57:00,
2013-06-28 19:02:00,77.0,-30.9,29.61,East,90,3.0,9.0,1,0.00,,,0.00,Weather View 32 v70,2013-06-28 23:02:00,
2013-06-28 19:07:00,77.0,-30.9,29.61,SW,225,0.0,9.0,1,0.00,,,0.00,Weather View 32 v70,2013-06-28 23:07:00,
2013-06-28 19:12:00,77.0,-30.9,29.62,East,90,1.0,9.0,1,0.00,,,0.00,Weather View 32 v70,2013-06-28 23:12:00,
2013-06-28 19:17:00,77.0,-30.9,29.62,ESE,112,6.0,7.0,1,0.00,,,0.00,Weather View 32 v70,2013-06-28 23:17:00,
2013-06-28 19:22:00,77.0,-30.9,29.62,SSW,202,2.0,8.0,1,0.00,,,0.00,Weather View 32 v70,2013-06-28 23:22:00,
2013-06-28 19:27:00,76.0,-31.5,29.62,NE,45,1.0,8.0,1,0.00,,,0.00,Weather View 32 v70,2013-06-28 23:27:00,
2013-06-28 19:33:00,76.0,-31.5,29.62,SSW,202,2.0,8.0,1,0.00,,,0.00,Weather View 32 v70,2013-06-28 23:33:00,
2013-06-28 19:38:00,76.0,-31.5,29.62,NE,45,2.0,8.0,1,0.00,,,0.00,Weather View 32 v70,2013-06-28 23:38:00,
2013-06-28 19:43:00,76.0,-31.5,29.62,West,270,2.0,8.0,1,0.00,,,0.00,Weather View 32 v70,2013-06-28 23:43:00,
2013-06-28 19:48:00,76.0,-31.5,29.63,SE,135,1.0,8.0,1,0.00,,,0.00,Weather View 32 v70,2013-06-28 23:48:00,
2013-06-28 19:53:00,75.0,-32.1,29.63,SE,135,0.0,8.0,1,0.00,,,0.00,Weather View 32 v70,2013-06-28 23:53:00,
2013-06-28 19:58:00,75.0,-32.1,29.62,SSW,202,0.0,8.0,1,0.00,,,0.00,Weather View 32 v70,2013-06-28 23:58:00,
2013-06-28 20:03:00,75.0,-32.1,29.62,SE,135,0.0,8.0,1,0.00,,,0.00,Weather View 32 v70,2013-06-29 00:03:00,
2013-06-28 20:08:00,74.0,-32.7,29.62,SSW,202,0.0,8.0,1,0.00,,,0.00,Weather View 32 v70,2013-06-29 00:08:00,
2013-06-28 20:13:00,74.0,-32.7,29.62,SSW,202,0.0,8.0,1,0.00,,,0.00,Weather View 32 v70,2013-06-29 00:13:00,
2013-06-28 20:18:00,74.0,-32.7,29.62,SSW,202,0.0,8.0,1,0.00,,,0.00,Weather View 32 v70,2013-06-29 00:18:00,
2013-06-28 20:23:00,74.0,-32.7,29.63,South,180,0.0,7.0,1,0.00,,,0.00,Weather View 32 v70,2013-06-29 00:23:00,
2013-06-28 20:28:00,74.0,-32.7,29.63,SSE,157,0.0,7.0,1,0.00,,,0.00,Weather View 32 v70,2013-06-29 00:28:00,
2013-06-28 20:33:00,73.0,-33.3,29.63,SSE,157,0.0,7.0,1,0.00,,,0.00,Weather View 32 v70,2013-06-29 00:33:00,
2013-06-28 20:38:00,73.0,-33.3,29.62,SSW,202,0.0,6.0,1,0.00,,,0.00,Weather View 32 v70,2013-06-29 00:38:00,
2013-06-28 20:43:00,73.0,-33.3,29.63,SSE,157,0.0,6.0,1,0.00,,,0.00,Weather View 32 v70,2013-06-29 00:43:00,
2013-06-28 20:48:00,73.0,-33.3,29.63,South,180,0.0,7.0,1,0.00,,,0.00,Weather View 32 v70,2013-06-29 00:48:00,
2013-06-28 20:53:00,73.0,-33.3,29.63,SE,135,0.0,7.0,1,0.00,,,0.00,Weather View 32 v70,2013-06-29 00:53:00,
2013-06-28 20:58:00,73.0,-33.3,29.64,SSW,202,0.0,7.0,1,0.00,,,0.00,Weather View 32 v70,2013-06-29 00:58:00,
2013-06-28 21:03:00,72.0,-33.9,29.64,SW,225,4.0,7.0,1,0.00,,,0.00,Weather View 32 v70,2013-06-29 01:03:00,
2013-06-28 21:08:00,72.0,-33.9,29.63,South,180,5.0,7.0,1,0.00,,,0.00,Weather View 32 v70,2013-06-29 01:08:00,
2013-06-28 21:13:00,72.0,-33.9,29.63,NW,315,2.0,7.0,1,0.00,,,0.00,Weather View 32 v70,2013-06-29 01:13:00,
2013-06-28 21:18:00,72.0,-33.9,29.63,SSE,157,0.0,7.0,1,0.00,,,0.00,Weather View 32 v70,2013-06-29 01:18:00,
2013-06-28 21:23:00,72.0,-33.9,29.64,SSE,157,2.0,7.0,1,0.00,,,0.00,Weather View 32 v70,2013-06-29 01:23:00,
2013-06-28 21:28:00,72.0,-33.9,29.64,SSE,157,1.0,7.0,1,0.00,,,0.00,Weather View 32 v70,2013-06-29 01:28:00,
2013-06-28 21:33:00,71.0,-34.5,29.64,SE,135,0.0,7.0,1,0.00,,,0.00,Weather View 32 v70,2013-06-29 01:33:00,
2013-06-28 21:38:00,71.0,-34.5,29.64,SE,135,1.0,7.0,1,0.00,,,0.00,Weather View 32 v70,2013-06-29 01:38:00,
2013-06-28 21:43:00,71.0,-34.5,29.65,South,180,1.0,7.0,1,0.00,,,0.00,Weather View 32 v70,2013-06-29 01:43:00,
2013-06-28 21:48:00,71.0,-34.5,29.65,SW,225,0.0,7.0,1,0.00,,,0.00,Weather View 32 v70,2013-06-29 01:48:00,
2013-06-28 21:53:00,71.0,-34.5,29.65,SW,225,0.0,7.0,1,0.00,,,0.00,Weather View 32 v70,2013-06-29 01:53:00,
2013-06-28 21:58:00,71.0,-34.5,29.65,SSW,202,2.0,7.0,1,0.00,,,0.00,Weather View 32 v70,2013-06-29 01:58:00,
2013-06-28 22:03:00,71.0,-34.5,29.65,NW,315,0.0,7.0,1,0.00,,,0.00,Weather View 32 v70,2013-06-29 02:03:00,
2013-06-28 22:08:00,71.0,-34.5,29.65,SE,135,0.0,7.0,1,0.00,,,0.00,Weather View 32 v70,2013-06-29 02:08:00,
2013-06-28 22:13:00,71.0,-34.5,29.65,SW,225,0.0,7.0,1,0.00,,,0.00,Weather View 32 v70,2013-06-29 02:13:00,
2013-06-28 22:18:00,70.0,-35.1,29.65,South,180,2.0,7.0,1,0.00,,,0.00,Weather View 32 v70,2013-06-29 02:18:00,
2013-06-28 22:23:00,70.0,-35.1,29.64,SSW,202,0.0,7.0,1,0.00,,,0.00,Weather View 32 v70,2013-06-29 02:23:00,
2013-06-28 22:28:00,70.0,-35.1,29.64,SSW,202,0.0,7.0,1,0.00,,,0.00,Weather View 32 v70,2013-06-29 02:28:00,
2013-06-28 22:34:00,70.0,-35.1,29.66,SW,225,2.0,7.0,1,0.00,,,0.00,Weather View 32 v70,2013-06-29 02:34:00,
2013-06-28 22:39:00,70.0,-35.1,29.66,SW,225,2.0,9.0,1,0.00,,,0.00,Weather View 32 v70,2013-06-29 02:39:00,
2013-06-28 22:44:00,70.0,-35.1,29.65,SSE,157,0.0,9.0,1,0.00,,,0.00,Weather View 32 v70,2013-06-29 02:44:00,
2013-06-28 22:49:00,70.0,-35.1,29.66,South,180,3.0,9.0,1,0.00,,,0.00,Weather View 32 v70,2013-06-29 02:49:00,
2013-06-28 22:54:00,70.0,-35.1,29.65,SE,135,3.0,9.0,1,0.00,,,0.00,Weather View 32 v70,2013-06-29 02:54:00,
2013-06-28 22:59:00,70.0,-35.1,29.65,ESE,112,2.0,9.0,1,0.00,,,0.00,Weather View 32 v70,2013-06-29 02:59:00,
2013-06-28 23:04:00,70.0,-35.1,29.65,ESE,112,1.0,9.0,1,0.00,,,0.00,Weather View 32 v70,2013-06-29 03:04:00,
2013-06-28 23:09:00,70.0,-35.1,29.65,WSW,247,1.0,9.0,1,0.00,,,0.00,Weather View 32 v70,2013-06-29 03:09:00,
2013-06-28 23:14:00,70.0,-35.1,29.64,SSE,157,2.0,9.0,1,0.00,,,0.00,Weather View 32 v70,2013-06-29 03:14:00,
2013-06-28 23:19:00,70.0,-35.1,29.64,South,180,1.0,9.0,1,0.00,,,0.00,Weather View 32 v70,2013-06-29 03:19:00,
2013-06-28 23:24:00,70.0,-35.1,29.64,ENE,67,0.0,9.0,1,0.00,,,0.00,Weather View 32 v70,2013-06-29 03:24:00,
2013-06-28 23:29:00,70.0,-35.1,29.64,SSW,202,3.0,9.0,1,0.00,,,0.00,Weather View 32 v70,2013-06-29 03:29:00,
2013-06-28 23:34:00,70.0,-35.1,29.64,South,180,2.0,9.0,1,0.00,,,0.00,Weather View 32 v70,2013-06-29 03:34:00,
2013-06-28 23:39:00,70.0,-35.1,29.64,WSW,247,1.0,9.0,1,0.00,,,0.00,Weather View 32 v70,2013-06-29 03:39:00,
2013-06-28 23:44:00,70.0,-35.1,29.64,ENE,67,3.0,8.0,1,0.00,,,0.00,Weather View 32 v70,2013-06-29 03:44:00,
2013-06-28 23:49:00,70.0,-35.1,29.64,SSW,202,0.0,8.0,1,0.00,,,0.00,Weather View 32 v70,2013-06-29 03:49:00,
2013-06-28 23:54:00,70.0,-35.1,29.64,South,180,0.0,8.0,1,0.00,,,0.00,Weather View 32 v70,2013-06-29 03:54:00,
2013-06-28 23:59:00,70.0,-35.1,29.65,South,180,0.0,8.0,1,0.00,,,0.00,Weather View 32 v70,2013-06-29 03:59:00,